DW8534 Weather Reports


time (UTC)temp
C
wind
direction
speed
KPH
gust
KPH
rain 1hr
cm
rain 24hr
cm
rain mn
cm
humidity
%
barometer
mb
20260506143021 12 311 3.2 0.0 0.00 0.00 0.00 83 1010.2
20260506141527 13 317 3.2 0.0 0.00 0.00 0.00 83 1009.3
20260506140016 13 297 4.8 0.0 0.00 0.00 0.00 82 1009.3
20260506134515 13 10 3.2 0.0 0.00 0.00 0.00 82 1009.2
20260506133015 13 347 4.8 0.0 0.00 0.00 0.00 82 1008.8
20260506131513 13 328 4.8 0.0 0.00 0.00 0.00 82 1008.5
20260506130013 13 13 3.2 0.0 0.00 0.00 0.00 81 1008.3
20260506124512 13 360 4.8 0.0 0.00 0.00 0.00 82 1008.3
20260506123014 13 351 4.8 0.0 0.00 0.00 0.00 82 1007.9
20260506121513 13 31 4.8 0.0 0.00 0.00 0.00 82 1007.8
20260506120015 13 320 1.6 0.0 0.00 0.00 0.00 84 1007.8
20260506114508 13 21 3.2 0.0 0.00 0.00 0.00 84 1007.5
20260506113006 13 283 3.2 0.0 0.00 0.00 0.00 84 1007.2
20260506111504 13 5 3.2 0.0 0.00 0.00 0.00 84 1006.8
20260506110005 13 18 4.8 0.0 0.00 0.00 0.00 84 1006.7
20260506104502 13 27 3.2 0.0 0.00 0.00 0.00 86 1006.6
20260506103005 13 5 1.6 0.0 0.00 0.00 0.00 87 1006.2
20260506101600 13 355 1.6 0.0 0.00 0.00 0.00 88 1006.0
20260506100113 13 15 1.6 0.0 0.00 0.00 0.00 88 1005.9
20260506094603 13 25 1.6 0.0 0.00 0.00 0.00 88 1005.6
20260506093058 14 277 1.6 0.0 0.00 0.00 0.00 88 1005.6
20260506091553 15 307 1.6 0.0 0.00 0.00 0.00 86 1005.6
20260506090051 15 327 1.6 0.0 0.00 0.00 0.00 84 1005.6
20260506084616 16 319 1.6 0.0 0.00 0.00 0.00 82 1005.4
20260506083046 16 337 3.2 0.0 0.00 0.00 0.00 82 1005.1
20260506081552 16 13 1.6 0.0 0.00 0.00 0.00 82 1004.9
20260506073040 17 10 1.6 0.0 0.00 0.00 0.00 82 1005.0
20260506071538 17 28 3.2 0.0 0.00 0.00 0.00 82 1005.1
20260506061531 18 20 4.8 0.0 0.00 0.00 0.00 80 1004.9
20260506044520 20 31 3.2 0.0 0.00 0.00 0.00 77 1004.4
20260506043017 21 303 3.2 0.0 0.00 0.00 0.00 77 1004.6
20260506041515 21 24 1.6 0.0 0.00 0.00 0.00 75 1004.4
20260506040015 21 15 1.6 0.0 0.00 0.00 0.00 74 1004.4
20260506034514 22 24 3.2 0.0 0.00 0.00 0.00 74 1003.8
20260506033014 22 11 1.6 0.0 0.00 0.00 0.00 73 1003.6
20260506031513 22 21 3.2 0.0 0.00 0.00 0.00 72 1003.5
20260506030014 22 319 3.2 0.0 0.00 0.00 0.00 72 1003.4
20260506024511 23 59 1.6 0.0 0.00 0.00 0.00 71 1002.9
20260506023011 24 360 3.2 0.0 0.00 0.00 0.00 71 1002.4
20260506021510 25 180 0.0 0.0 0.00 0.00 0.00 82 1001.9
20260506020010 25 180 1.6 0.0 0.00 0.00 0.00 82 1001.6
20260506014509 25 189 1.6 0.0 0.00 0.00 0.00 82 1001.6
20260506013013 25 187 1.6 0.0 0.00 0.00 0.00 81 1001.2
20260506011509 26 186 1.6 0.0 0.00 0.00 0.00 81 1001.3
20260506010013 26 166 6.4 0.0 0.00 0.00 0.00 81 1000.6
20260506004511 26 128 8.0 0.0 0.00 0.00 0.00 80 1000.6
20260506003008 26 127 8.0 0.0 0.00 0.00 0.00 80 1000.6
20260506001507 26 112 8.0 0.0 0.00 0.00 0.00 79 1000.5
20260506000006 26 135 8.0 0.0 0.00 0.00 0.00 79 1000.4
20260505234506 27 159 8.0 0.0 0.00 0.00 0.00 78 1000.5
20260505233006 27 145 9.7 0.0 0.00 0.00 0.00 78 1000.3
20260505231504 27 121 9.7 0.0 0.00 0.00 0.00 77 1000.1
20260505230010 28 149 8.0 0.0 0.00 0.00 0.00 75 1000.0
20260505224505 28 121 8.0 0.0 0.00 0.00 0.00 74 1000.0
20260505223005 29 169 9.7 0.0 0.00 0.00 0.00 73 999.8
20260505221503 29 138 8.0 0.0 0.00 0.00 0.00 71 999.8
20260505220002 30 128 6.4 0.0 0.00 0.00 0.00 71 999.8
20260505214502 30 190 8.0 0.0 0.00 0.00 0.00 70 999.7
20260505213002 30 190 9.7 0.0 0.00 0.00 0.00 68 1000.0
20260505211502 30 194 9.7 0.0 0.00 0.00 0.00 69 1000.0
20260505210000 30 206 9.7 0.0 0.00 0.00 0.00 68 1000.2
20260505204600 30 190 11.3 0.0 0.00 0.00 0.00 67 1000.3
20260505203120 30 225 9.7 0.0 0.00 0.00 0.00 68 1000.6
20260505201602 29 214 9.7 0.0 0.00 0.00 0.00 72 1000.6
20260505200055 28 195 9.7 0.0 0.00 0.00 0.00 73 1000.7
20260505194550 28 181 11.3 0.0 0.00 0.00 0.00 74 1000.7
20260505193050 28 184 9.7 0.0 0.00 0.00 0.00 71 1000.8
20260505191559 28 230 11.3 0.0 0.00 0.00 0.00 72 1000.9
20260505190047 27 236 14.5 0.0 0.00 0.00 0.00 75 1001.2
20260505184541 27 208 14.5 0.0 0.00 0.00 0.00 77 1001.3
20260505183039 27 146 14.5 0.0 0.00 0.00 0.00 77 1001.7
20260505181543 27 173 11.3 0.0 0.00 0.00 0.00 75 1001.7
20260505180038 26 224 11.3 0.0 0.00 0.00 0.00 77 1001.8
20260505174541 26 209 12.9 0.0 0.00 0.00 0.00 77 1001.8
20260505173032 26 197 14.5 0.0 0.00 0.00 0.00 78 1001.5
20260505171532 26 159 11.3 0.0 0.00 0.00 0.00 80 1001.6
20260505170027 25 175 11.3 0.0 0.00 0.00 0.00 81 1001.7
20260505164527 25 190 14.5 0.0 0.00 0.00 0.00 81 1001.4
20260505163030 25 165 16.1 0.0 0.00 0.00 0.00 82 1001.4
20260505161520 24 192 12.9 0.0 0.00 0.00 0.00 84 1001.8
20260505153015 23 173 12.9 0.0 0.00 0.00 0.00 84 1001.6
20260505151518 23 176 12.9 0.0 0.00 0.00 0.00 85 1001.3